Flag for U.S.A. Weather past 2 weeks in Fairfax, Virginia, U.S.A.

Now
26 °F

Clear.


Feels Like: 18 °F
Forecast: 14 / 32 °F
Wind: 8 mph from North

Location: Washington-Dulles International Airport

Current Time: Feb 27, 2015 at 9:09:14 PM

Latest Report: Feb 27, 2015 at 7:52 PM


Visibility: 10 mi

Pressure: 30.57 "Hg

Humidity: 40%

Dew point: 5 °F

Location of FairfaxLocation

Historic Weather in Fairfax — Graph

°F

Fairfax temperature yesterday

Maximum temperature yesterday: 34 °F (at 2:52 PM)
Minimum temperature yesterday: 28 °F (at 6:52 AM)
Average temperature yesterday: 31 °F

Past Weeks' High & Low Weather Summary

 TemperatureHumidityPressure
High46 °F (Feb 22, 2:52 PM)93% (Feb 14, 6:52 PM)30.57 "Hg (Feb 14, 6:52 PM)
Low-2 °F (Feb 24, 5:52 AM)27% (Feb 20, 5:52 PM)29.45 "Hg (Feb 14, 5:52 PM)
Average20 °F57%30.13 "Hg
* Reported Feb 12 7:52 PM — Feb 27 7:52 PM, Fairfax, Weather by CustomWeather, © 2015

Note: Actual official high and low records may vary slightly from our data, if they occured in-between our weather recording intervals... More about our weather records

Advertising

Fairfax weather history for previous 24 hours

 ConditionsComfort  
Time TempWeatherWind HumidityBarometerVisibility
7:52 PM
Fri, Feb 27
26 °FClear.8 mph40%30.57 "Hg10 mi
6:52 PM27 °FPassing clouds.5 mph42%30.55 "Hg10 mi
5:52 PM29 °FPassing clouds.6 mph39%30.51 "Hg10 mi
4:52 PM30 °FPassing clouds.8 mph38%30.48 "Hg10 mi
3:52 PM30 °FPassing clouds.12 mph40%30.49 "Hg10 mi
2:52 PM30 °FScattered clouds.10 mph40%30.46 "Hg10 mi
1:52 PM28 °FScattered clouds.13 mph43%30.45 "Hg10 mi
12:52 PM28 °FScattered clouds.15 mph45%30.45 "Hg10 mi
11:52 AM27 °FScattered clouds.12 mph46%30.45 "Hg10 mi
10:52 AM26 °FScattered clouds.10 mph46%30.44 "Hg10 mi
9:52 AM25 °FScattered clouds.16 mph48%30.41 "Hg10 mi
8:52 AM25 °FBroken clouds.13 mph50%30.40 "Hg10 mi
7:52 AM25 °FPartly sunny.12 mph58%30.37 "Hg10 mi
6:52 AM27 °FOvercast.9 mph66%30.32 "Hg10 mi
5:52 AM29 °FOvercast.7 mph69%30.28 "Hg9 mi
4:52 AM28 °FMostly cloudy.7 mph72%30.25 "Hg8 mi
3:52 AM27 °FPassing clouds.6 mph78%30.22 "Hg7 mi
2:52 AM29 °FPassing clouds.No wind82%30.20 "Hg8 mi
1:52 AM31 °FMostly cloudy.No wind76%30.19 "Hg8 mi
12:52 AM30 °FMostly cloudy.No wind79%30.17 "Hg8 mi
11:52 PM
Thu, Feb 26
30 °FMostly cloudy.No wind79%30.15 "Hg8 mi
10:52 PM30 °FMostly cloudy.No wind75%30.13 "Hg9 mi
9:52 PM29 °FOvercast.No wind79%30.12 "Hg10 mi
Weather by CustomWeather, © 2015

See weather overviewHow to use our weather pages